GSAT0212 (GALILEO 16)

Last updated on Mon Sep 21 2026 00:02:49 GMT+0000 (Coordinated Universal Time)

1 41860U 16069B 26263.21243039 .00000029 00000+0 00000+0 0 9993 2 41860 55.5610 98.4503 0003830 42.7279 317.3785 1.70474153 61279
UTC large
Height (km)
Speed (km/s)
/
Latitude / Longitude
Inclination (degrees)
Orbital Period (minutes)
Azimuth
Elevation
Range (km)
Doppler Factor

Next 0 passes for location: London (51.5072 / 0.1276)

No passes found over London.
GSAT0212 (GALILEO 16)